San Antonio Del Tachira Airport

Jump to: basic info | weather | frequencies | runways | comments

Related pages: nearby airports | nearby navaids | notams | map

Basic information (top)

Codes: SVZ SVSA
Location: lon 7.840830, lat -72.439697, elev 1,312 ft / 400 m msl
Status: medium_airport

Weather (top)

Current conditions (rec'd 2014/12/18 23:00Z):

SVSA 182300Z /////KT 9999 BKN020 28/21 Q1011

Airport forecast (rec'd 2014/12/14 06:48Z):

TAF TAF SVSA 140544Z 1406/1506 18004KT 9000 VCDZ BKN020 TX33/17Z TN23/07Z 
     FM140800 00000KT 9999 FEW020 SCT090

Frequencies (top)

Verify before use: may be inaccurate or out of date.

GND: 121.9 MHz (GND)
TWR: 118.5 MHz (TWR)

Runways (top)

17/35: 6,135 x 131 ft (1,870 x 40 m) — paved — lighted

Latest comments (top)

No comments yet for San Antonio Del Tachira Airport

More... (top)

See also NOTAMs and nearby airports and navaids, or visit the San Antonio Del Tachira Airport page at the main OurAirports website..